Flag for Canada Weather past 2 weeks in Halton Hills, Ontario, Canada

Now
68 °F

Mostly cloudy.


Feels Like: 68 °F
Forecast: 61 / 72 °F
Wind: 7 mph from Northeast

Location: Toronto Pearson International Airport

Current Time: Aug 23, 2014 at 5:43:02 AM

Latest Report: Aug 23, 2014 at 5:00 AM


Visibility: 10 mi

Pressure: 30.03 "Hg

Humidity: 88%

Dew point: 64 °F

Location of Halton HillsLocation

Historic Weather in Halton Hills — Graph

°F

Halton Hills temperature yesterday

Maximum temperature yesterday: 77 °F (at 5:00 PM)
Minimum temperature yesterday: 63 °F (at 6:00 AM)
Average temperature yesterday: 69 °F

Past Weeks' High & Low Weather Summary

 TemperatureHumidityPressure
High82 °F (Aug 11, 3:00 PM)100% (Aug 21, 6:49 AM)30.19 "Hg (Aug 21, 6:49 AM)
Low54 °F (Aug 14, 5:00 AM)37% (Aug 10, 12:00 PM)29.67 "Hg (Aug 12, 4:00 PM)
Average67 °F72%29.94 "Hg
* Reported Aug 8 4:00 AM — Aug 23 4:00 AM, Halton Hills, Weather by CustomWeather, © 2014

Note: Actual official high and low records may vary slightly from our data, if they occured in-between our weather recording intervals... More about our weather records

Advertising

Halton Hills weather history for previous 24 hours

 ConditionsComfort  
Time TempWeatherWind HumidityBarometerVisibility
4:00 AM
Aug 23
68 °FMostly cloudy.5 mph94%30.02 "Hg10 mi
3:00 AM68 °FLow clouds.6 mph94%30.02 "Hg10 mi
2:00 AM70 °FOvercast.5 mph83%30.03 "Hg10 mi
1:00 AM70 °FMostly cloudy.6 mph83%30.03 "Hg10 mi
12:00 AM70 °FPassing clouds.6 mph83%30.03 "Hg15 mi
11:00 PM
Aug 22
70 °FPassing clouds.5 mph83%30.03 "Hg15 mi
10:00 PM70 °FMostly cloudy.5 mph83%30.03 "Hg15 mi
9:00 PM70 °FPartly sunny.5 mph83%30.02 "Hg15 mi
8:00 PM70 °FPassing clouds.7 mph78%30.00 "Hg15 mi
7:00 PM73 °FPassing clouds.8 mph69%29.98 "Hg15 mi
6:00 PM75 °FPassing clouds.8 mph69%29.97 "Hg15 mi
5:00 PM77 °FScattered clouds.6 mph65%29.97 "Hg15 mi
4:00 PM75 °FScattered clouds.6 mph69%29.98 "Hg15 mi
3:00 PM73 °FPartly sunny.8 mph74%29.99 "Hg15 mi
2:00 PM75 °FPartly sunny.5 mph69%29.99 "Hg15 mi
1:00 PM73 °FPartly sunny.7 mph74%30.00 "Hg15 mi
12:00 PM72 °FPartly sunny.No wind78%30.00 "Hg15 mi
11:00 AM70 °FBroken clouds.2 mph83%30.01 "Hg15 mi
10:00 AM66 °FPartly sunny.6 mph88%30.02 "Hg15 mi
9:00 AM63 °FLow clouds.6 mph94%30.01 "Hg8 mi
8:48 AM64 °FLow clouds.5 mph88%30.02 "Hg8 mi
8:00 AM63 °FFog.5 mph94%30.00 "Hg5 mi
7:00 AM63 °FFog.9 mph94%29.98 "Hg2 mi
6:00 AM63 °FFog.8 mph100%29.97 "Hg6 mi
5:00 AM64 °FPassing clouds.9 mph94%29.96 "Hg12 mi
Weather by CustomWeather, © 2014

See weather overviewHow to use our weather pages